RH
47 48 51 42 39 44 51 52 55 66 57 44 46 40 44 40 41 41 41 49 52 54 54 54 53 54 52 55 52 51 51 51 53 54 51 64 59 54
34 42 42 37 39 43 48 56 60 58 67 49 47 45 41 37 46 43 44 53 55 57 55 54 53 51 53 52 54 51 52 53 55 57 58 64 65 61
41 42 44 44 46 47 51 52 58 63 65 54 47 44 48 52 48 50 53 50 51 58 59 53 52 52 52 52 54 56 54 53 52 52 54 66 79 73
47 50 51 44 56 54 54 55 60 58 60 61 53 57 60 55 57 62 51 49 59 58 55 53 52 52 54 54 54 59 63 63 60 60 63 69 69 75
53 57 57 56 61 59 57 59 56 49 58 64 82 65 63 70 76 70 70 64 44 50 53 53 54 56 60 58 56 56 56 61 59 57 62 72 59 68
58 61 56 60 60 62 55 54 50 59 62 65 68 90 85 75 64 59 56 56 61 47 51 58 63 66 57 59 60 59 62 61 64 61 60 66 68 79
61 55 55 58 58 51 48 54 56 61 71 92 96 87 72 61 60 58 70 76 69 63 69 83 60 60 61 65 63 65 63 70 63 76 84 64 60 67
63 55 56 56 53 56 58 59 59 66 96 97 95 77 65 61 60 73 89 93 88 63 68 71 65 68 67 64 69 64 59 60 63 72 71 72 60 60
58 60 56 46 58 59 64 63 70 78 78 72 70 69 66 65 92 94 79 76 78 69 76 86 72 76 64 63 64 62 66 72 74 73 68 64 61 63
62 61 60 60 65 60 59 68 83 94 73 58 60 61 78 76 58 58 69 84 84 73 70 90 74 76 67 64 68 67 68 83 85 88 96 89 87 70
54 56 63 64 65 59 61 96 87 70 54 59 72 68 60 59 61 65 92 94 88 78 73 83 85 86 82 79 72 73 70 72 69 71 68 68 67 66
59 68 70 61 58 62 85 70 73 59 69 82 56 57 61 64 67 71 89 96 93 92 75 90 91 91 94 81 86 88 79 72 76 86 83 74 72 73
82 75 70 64 81 70 59 53 57 59 62 62 64 66 67 71 71 75 87 96 95 94 80 89 95 93 93 93 88 89 87 88 82 88 93 95 89 85
71 65 65 92 59 58 58 60 61 61 62 69 76 82 82 87 88 88 91 94 93 96 93 97 97 97 96 94 90 87 86 88 96 96 97 98 98 97
61 74 78 60 59 58 62 62 63 67 75 90 88 88 87 90 93 93 91 89 88 88 90 96 98 97 97 94 94 92 95 91 97 98 99 98 99 99
79 77 59 57 61 62 60 59 63 70 82 91 92 88 88 93 93 92 95 91 95 88 81 88 97 98 96 97 97 93 94 98 96 98 98 99 98 98
60 58 56 62 68 64 64 64 68 75 88 87 91 91 90 91 91 89 94 94 95 95 92 88 89 92 96 98 96 96 96 97 98 99 99 99 98 98
61 62 71 75 75 70 70 76 78 82 86 90 90 91 94 94 94 92 91 96 96 94 95 95 96 91 95 94 96 96 97 98 99 99 99 98 98 98
66 75 80 78 76 77 83 89 90 84 88 89 93 94 94 93 92 93 93 94 94 94 95 96 97 97 96 96 93 99 97 97 98 97 98 98 98 98
74 79 80 77 79 87 90 92 91 89 89 92 94 93 94 94 94 94 94 96 96 95 94 95 96 98 97 97 97 97 99 98 97 97 98 97 99 97
76 76 75 81 88 90 90 91 91 92 91 93 93 94 94 95 93 94 94 88 91 95 95 96 97 94 98 96 96 95 97 100 99 98 98 98 98 97
74 78 81 83 89 92 93 92 93 91 92 92 93 94 93 94 96 95 93 95 94 96 97 97 96 97 96 94 96 96 95 92 96 98 97 98 99 98
82 86 85 89 91 92 92 91 91 91 90 94 94 93 93 95 96 95 95 95 96 97 98 97 96 97 97 97 94 96 94 92 94 97 98 98 97 98
Wind_Speed
6 5 4 4 7 7 7 7 10 16 16 14 12 10 7 10 14 13 15 23 33 32 33 33 33 32 33 32 35 35 35 35 33 35 32 34 36 33
7 6 5 8 9 8 8 6 5 10 16 13 13 13 13 10 15 15 14 27 29 32 31 32 30 32 34 37 36 36 38 35 34 33 33 33 36 36
5 6 10 11 10 9 9 8 8 5 11 17 12 13 16 15 15 13 13 14 13 27 30 32 35 34 37 37 35 34 34 34 36 36 33 34 31 35
6 7 11 11 13 12 9 11 8 9 10 16 16 13 16 17 15 17 13 11 12 19 30 33 37 37 34 35 35 34 34 33 32 33 32 30 29 31
5 7 11 13 13 11 12 9 10 10 9 11 13 13 13 11 12 13 13 14 12 25 28 32 33 34 33 32 36 35 33 31 32 32 31 31 27 29
5 6 12 12 14 14 12 12 10 11 11 12 13 11 10 10 12 14 15 11 13 13 20 26 27 25 32 32 33 32 30 31 32 31 30 27 23 25
5 8 11 16 26 21 13 14 16 13 12 11 11 10 12 14 15 13 15 14 14 12 12 7 11 12 14 23 25 29 30 30 32 28 31 29 24 24
7 11 10 17 17 25 27 29 25 17 17 10 11 14 16 15 13 14 14 12 16 9 10 14 11 13 12 12 25 29 34 33 31 29 29 29 27 27
9 10 11 10 17 13 22 26 22 25 26 18 16 15 17 16 16 13 17 15 15 13 13 16 10 13 12 12 28 32 32 32 32 32 32 32 31 27
9 9 10 13 13 21 19 16 16 11 12 11 14 15 15 15 17 15 17 16 14 12 11 17 12 14 13 12 29 32 33 30 30 28 23 23 26 27
8 9 11 15 23 31 21 17 14 12 15 25 25 26 30 29 24 14 11 13 14 13 12 13 13 14 13 14 14 28 27 26 27 29 27 26 28 29
11 11 19 21 31 32 19 15 14 16 16 13 12 16 18 17 25 14 11 13 13 14 14 11 12 11 10 9 10 8 10 24 28 27 28 30 29 15
10 10 10 28 31 28 28 13 18 21 17 13 12 12 12 12 11 11 13 11 13 14 17 13 10 11 9 9 7 8 10 11 11 15 24 26 27 24
11 10 14 24 28 28 22 27 29 23 11 11 12 11 12 11 11 13 15 14 13 16 17 15 10 8 9 10 9 6 10 10 10 11 10 16 23 25
11 20 21 26 26 17 24 27 23 10 10 10 11 12 11 12 13 12 13 14 14 14 12 14 9 10 5 8 9 9 13 6 8 9 7 6 5 5
16 9 17 21 20 20 16 14 10 10 12 11 11 12 11 10 10 10 11 11 10 10 11 9 11 8 7 6 6 11 10 6 7 8 6 5 6 6
18 9 10 10 11 11 11 11 11 10 11 11 11 12 11 11 10 10 9 10 10 9 10 9 10 9 6 7 6 8 8 6 6 7 4 5 7 8
10 10 10 10 11 12 12 12 11 15 11 12 11 11 11 11 11 10 10 9 9 9 10 7 7 7 4 3 9 8 5 5 5 7 5 7 10 10
8 9 10 10 11 11 11 11 12 12 13 11 11 11 11 10 15 11 10 9 8 8 8 6 5 3 4 4 4 17 5 6 7 10 8 9 11 12
8 10 10 11 11 11 11 11 11 11 11 11 11 11 10 9 11 10 9 9 8 7 7 5 6 4 3 3 4 5 22 9 7 8 9 9 6 19
10 10 10 11 11 11 11 11 12 11 13 12 10 10 10 9 9 8 9 16 13 6 6 6 6 12 5 3 4 6 7 20 15 9 6 8 8 11
10 11 11 11 11 11 11 11 11 12 11 11 11 10 9 9 8 8 8 8 8 7 4 4 4 5 5 6 7 8 8 9 14 23 25 16 3 8
11 10 11 11 11 11 11 11 11 11 11 11 10 10 10 10 7 7 7 6 6 5 3 4 4 3 4 5 8 6 11 10 7 10 12 23 24 25
Wind_Direction
288 285 287 297 303 289 282 283 288 304 303 308 309 314 311 303 298 303 301 299 299 298 304 299 299 299 299 303 300 299 296 293 295 289 292 288 284 275
311 323 309 315 306 297 287 281 275 287 296 305 305 306 302 297 292 298 291 292 294 297 297 295 301 299 301 298 297 297 292 291 290 290 287 283 282 277
322 314 312 315 303 303 296 289 280 266 284 297 297 301 297 295 297 292 289 287 284 292 295 304 299 295 299 292 289 290 291 288 286 285 286 287 293 283
296 313 315 311 303 299 292 289 277 274 275 284 294 298 289 297 298 295 296 297 292 283 291 294 297 296 293 294 289 293 291 284 286 285 287 283 284 287
296 311 310 308 302 299 293 282 283 284 286 287 289 285 296 298 294 296 291 283 285 289 293 292 291 292 290 301 297 288 290 292 288 286 278 277 277 281
293 298 307 302 298 296 295 297 304 304 297 292 289 291 301 300 293 304 297 293 293 285 288 288 292 295 296 294 291 292 290 287 281 282 280 278 282 283
280 303 302 300 309 310 316 316 308 301 298 291 287 313 305 306 304 301 294 295 289 290 288 273 285 287 283 284 282 283 285 284 287 288 285 279 276 276
291 304 294 303 302 316 310 307 303 308 304 315 306 302 302 301 297 292 291 307 301 287 287 291 284 283 280 280 276 284 291 285 284 281 288 284 279 273
291 292 298 302 309 301 299 304 306 297 304 308 298 297 297 300 296 308 301 296 293 300 296 288 289 283 283 276 285 287 290 290 287 284 277 271 273 269
275 282 291 303 306 306 307 308 304 297 298 297 290 295 295 299 302 301 300 297 286 287 283 285 292 283 284 280 282 284 284 283 277 278 270 279 274 268
305 306 308 311 308 313 318 310 318 314 300 308 310 310 307 307 307 303 298 296 294 297 289 281 285 283 284 280 274 277 279 283 292 290 288 279 272 268
321 317 311 314 313 317 321 329 320 315 315 312 315 307 306 297 303 301 299 293 293 293 287 289 287 288 288 273 271 263 269 277 279 277 279 276 266 257
313 311 307 311 317 328 333 333 310 320 328 321 310 304 303 302 302 297 292 285 286 284 285 295 292 289 281 294 282 271 271 274 278 278 275 271 265 252
317 310 307 326 331 333 332 318 328 331 315 307 305 305 308 305 303 299 293 287 281 279 286 282 281 287 298 298 293 294 291 279 270 268 267 262 263 254
326 318 336 331 332 332 323 328 327 313 310 303 308 305 305 301 298 295 293 290 287 286 286 285 275 282 278 282 289 297 311 296 286 278 286 283 265 242
318 332 333 333 330 324 322 319 316 313 312 309 305 303 303 302 300 300 300 303 303 303 308 290 295 280 285 265 276 293 303 303 301 312 312 301 318 341
341 336 330 327 324 321 320 318 317 314 314 311 309 307 305 305 303 305 298 305 303 310 316 322 326 308 254 250 284 299 310 307 314 325 322 357 16 6
344 329 325 322 321 320 319 318 317 319 316 312 308 305 307 309 307 309 307 304 306 314 317 324 331 340 335 289 254 308 315 317 327 354 356 26 33 14
330 324 319 320 319 316 314 314 315 315 314 309 305 308 308 306 317 312 312 316 314 318 322 319 327 337 343 339 310 10 351 347 2 32 25 38 46 37
325 320 319 318 314 312 313 314 312 313 312 306 310 306 307 308 313 316 322 322 324 328 325 333 340 347 334 322 312 332 17 23 15 24 26 35 32 47
324 320 317 313 311 311 310 310 309 308 310 311 305 307 308 310 312 318 318 330 342 330 340 348 343 13 341 315 18 18 14 23 39 33 1 35 41 49
318 316 315 313 311 309 309 309 308 308 307 307 306 307 306 309 306 316 318 323 332 330 337 323 342 351 2 26 38 29 24 25 31 49 54 57 3 56
315 313 313 309 308 307 306 306 305 303 303 303 303 307 310 308 310 307 309 320 325 330 334 351 348 355 10 18 53 46 41 34 38 54 52 51 60 62